Regional Weather Roundup
Issued by NWS

Home | Current Version | Previous Version | Text Only | Print | Product List | Glossary On
Versions: 1 2 3 4 5 6 7 8 9 10 11 12 13 14 15 16 17 18 19 20 21 22 23 24 25 26 27 28 29 30 31 32 33 34 35 36 37 38 39 40 41 42 43 44 45 46 47 48 49 50
000
ASUS45 KPSR 212310
RWRAZ

ARIZONA HOURLY REGIONAL WEATHER ROUNDUP
NATIONAL WEATHER SERVICE PHOENIX AZ
400 PM MST WED FEB 21 2018

NOTE: FAIR INDICATES FEW OR NO CLOUDS BELOW 12,000 FEET WITH NO
SIGNIFICANT WEATHER AND/OR OBSTRUCTIONS TO VISIBILITY.

AZZ001>003-036-220000-
NORTHWEST ARIZONA

CITY           SKY/WX    TMP DP  RH WIND       PRES   REMARKS
BULLHEAD CITY  PTSUNNY   57   3  11 CALM      30.08F
KINGMAN        CLOUDY    47   7  19 SW14      30.04S
$$

AZZ004>008-015-016-018-220000-
NORTH CENTRAL ARIZONA

CITY           SKY/WX    TMP DP  RH WIND       PRES   REMARKS
GRAND CANYON   CLOUDY    32   7  35 SW12      29.98S WCI  23
WILLIAMS       FAIR      30   7  37 SW12G23   29.96R WCI  21
PRESCOTT       PTSUNNY   42   1  18 SW14G22   29.99S
FLAGSTAFF      PTSUNNY   31  11  43 SW12      29.96S WCI  22
PAYSON         FAIR      41  14  33 VRB7G16   30.00S
PAGE           CLOUDY    40   9  28 E6        30.01S
$$

AZZ009>014-017-220000-
NORTHEAST ARIZONA

CITY           SKY/WX    TMP DP  RH WIND       PRES   REMARKS
WINSLOW        PTSUNNY   51  11  20 SW17      29.96R
SAINT JOHNS    FAIR      49  16  26 SW16      29.93S
WINDOW ROCK    PTSUNNY   41  20  43 S14G22    29.95F
SHOW LOW       FAIR      41  21  45 SW23G29   29.97S
$$

AZZ540-542>544-546-548-220000-
GREATER PHOENIX AREA

CITY           SKY/WX    TMP DP  RH WIND       PRES   REMARKS
PHOENIX        PTSUNNY   58  11  15 NW6       30.02F
BUCKEYE        FAIR      59   0   9 W6        30.05F
GLENDALE       MOSUNNY   61  10  13 SW9G17    30.05F
LUKE AFB       MOSUNNY   59   8  13 SW7G20    30.02F
DEER VALLEY    FAIR      57  10  15 SW7       30.02F
SCOTTSDALE     FAIR      58  16  19 VRB7      30.04S
MESA-FALCON    MOSUNNY   57  16  19 W6        30.04
MESA-GATEWAY   PTSUNNY   57  16  19 SW8       30.05S
CHANDLER       PTSUNNY   59  12  15 S6        30.03F
$$

AZZ539-553-220000-
SOUTHWEST MARICOPA COUNTY AND PINAL COUNTY

CITY           SKY/WX    TMP DP  RH WIND       PRES   REMARKS
CASA GRANDE      N/A     58  16  19 W6        30.04S
GILA BEND      PTSUNNY   60   2  10 W7G16     30.04S
$$

AZZ503-504-507>509-220000-
SOUTHEAST ARIZONA

CITY           SKY/WX    TMP DP  RH WIND       PRES   REMARKS
TUCSON         FAIR      60  25  26 W6        30.01S
DAVIS-MONTHAN  FAIR      61  26  26 W9        29.99F
RYAN FIELD     SUNNY     61  27  27 SW13G20   30.02F
NOGALES        FAIR      56  25  30 SW14G21   30.01S
SIERRA VISTA   FAIR      55  17  22 SW20      30.02S
DOUGLAS        FAIR      57  26  30 SW13G25   30.00S
SAFFORD        FAIR      60  29  30 CALM      29.95F
$$

AZZ532-220000-
SOUTHWEST ARIZONA

CITY           SKY/WX    TMP DP  RH WIND       PRES   REMARKS
YUMA           FAIR      61  13  15 CALM      30.08S
$$

CAZ041-043-047-048-061-525>527-560>570-220000-
SOUTHERN CALIFORNIA

CITY           SKY/WX    TMP DP  RH WIND       PRES   REMARKS
DOWNTOWN L.A.  FAIR      59  27  29 W6        30.10S
L.A. AIRPORT   FAIR      58  33  39 W17G25    30.11S
SAN DIEGO      FAIR      58  35  42 SW12      30.14S
BURBANK        FAIR      58  25  28 S10       30.07S
ONTARIO        PTSUNNY   55  26  32 SW7       30.08F
RIVERSIDE      PTSUNNY   57  27  31 S13G21    30.08F
PALM SPRINGS   CLOUDY    63  18  17 SW6       30.07F
EL CENTRO NAS  PTSUNNY   62  18  18 S5        30.09S
IMPERIAL       PTSUNNY   61  20  20 W5        30.07S
BLYTHE         FAIR      60   7  12 W3        30.07F
NEEDLES        FAIR      59   3  10 E5        30.08F
$$

NVZ020-UTZ003-220000-
SOUTHERN NEVADA-UTAH

CITY           SKY/WX    TMP DP  RH WIND       PRES   REMARKS
LAS VEGAS      PTSUNNY   50   9  19 N3        30.07F
SALT LAKE CITY FAIR      32  13  45 N7        30.10S WCI  26
$$

NMZ009-TXZ055-220000-
NEW MEXICO-WEST TEXAS

CITY           SKY/WX    TMP DP  RH WIND       PRES   REMARKS
ALBUQUERQUE    PTSUNNY   51  25  36 S16G26    29.98F
EL PASO        FAIR      61  29  29 SE10      30.01S
$$


........................KEY........................
SKY/WX - SKY CONDITION/WEATHER
TMP    - TEMPERATURE IN FAHRENHEIT
DP     - DEW POINT IN FAHRENHEIT
RH     - RELATIVE HUMIDITY IN PERCENT
WIND   - DIRECTION AND SPEED IN MILES PER HOUR (MPH)
VRB    - VARIABLE WIND DIRECTION
PRES   - MEAN SEA LEVEL PRESSURE IN INCHES OF MERCURY
         F - FALLING PRESSURE   R - RISING PRESSURE
         S - STEADY PRESSURE
VSB    - VISIBILITY IN MILES
HX     - HEAT INDEX IN FAHRENHEIT
WCI    - WIND CHILL INDEX IN FAHRENHEIT
TC     - TEMPERATURE IN CELSIUS WHICH IS ALSO KNOWN AS
         TEMPERATURE IN CENTIGRADE
AFB    - AIR FORCE BASE
         LUKE AFB IS LUKE AIR FORCE BASE
         DAVIS-MONTHAN IS DAVIS-MONTHAN AIR FORCE BASE
NAS    - NAVAL AIR STATION
         EL CENTRO NAS IS EL CENTRO NAVAL AIR STATION
N/A    - NOT AVAILABLE




USA.gov is the U.S. government's official web portal to all federal, state and local government web resources and services.